Volver al catálogo

SL-14 R/B

ActivoPO
NORAD 22693·ROCKET BODY·🇷🇺 Russia

Lanzado Jun 24, 1993 desde Plesetsk Cosmodrome

Loading…

Próximos Pases (próximas 24 horas)

TLE

ActualizadoSource: Space-Track

Época: Sep 14, 2026, 22:17 UTC

1 22693U 93038G   26257.92874001  .00000004  00000-0 -38987-4 0  9992
2 22693  82.5830 293.2512 0046860 122.7342 351.8457 12.54835912522270

Sigue SL-14 R/B en tiempo real con AllMySat

Download on the App Store